SCOUT B DEB, 3392

Orbit data source: Space-Track

SCOUT B DEB, 3392 is space debris in LEO originally from a launch on Thu, 08 Aug 1968 UTC launched from the Air Force Western Test Range (AFWTR). Debris objects in space refer to the collection of defunct objects orbiting the Earth. Examples of debris include non-operational satellites, rocket bodies, and fragments generated from explosions, collisions, or faulty payload assembly.

Loading next visibility...
Identifier
3392, 1968-066H
Orbit
LEO
Country
Flag of USUS
Related business
Manufacturer
Unknown
Mission
Spacecraft
Bus & Motor
Unknown
Mass
Unknown
Launch date (UTC)
1968-08-08 (58 years ago)
Launch vehicle
Unknown
Launch site
Air Force Western Test Range (AFWTR)
Object type
Payload
Rocket body
Debris
Shape & HBR
Unknown shape, 0.1 m
Radar Cross Section
Medium (>0.1 m² and <1 m²)

Expand to show TLE details & history
Last TLE update: 10 hours ago

TLE from 10 hours ago
0 SCOUT B DEB
1 03392U 68066H   26208.87847811  .00015911  00000-0  44168-2 0  9997
2 03392  80.6610 178.8501 0332401  81.4019 282.4662 14.18585474739136
Epoch: 2026-07-27T21:05Z
TLE epoch observation values (Epoch: 2026-07-27T21:05:00.508Z)
Latitude
-0.00001°
Longitude
-82.95775°
Altitude
788.975 km
Speed
7.482 km/s
True Right ascension
11h 55m 24s
True Declination
0° 00' 00"
Sunlit
Object was in daylight at epoch
Visualization orbit readout
Latitude
Unknown
Longitude
Unknown
Altitude
Unknown
Speed
Unknown
Apparent Right ascension
Unknown
Apparent Declination
Unknown
Sunlit
N/A
Visualization observer readout
Local Sidereal Time
20:24:37
Azimuth
Unknown
Elevation
Unknown
Doppler factor
Unknown
Orbital elements
Apogee altitude
1,066.838 km
Perigee altitude
587.817 km
Semi-major axis
7,205.465 km
Eccentricity
0.03324
Inclination
80.661°
RAAN
178.8501°
Arg. of periapsis
81.4019°
True anomaly
278.716°
Mean anomaly
282.4662°
Eccentric anomaly
280.59415°
Mean motion
3.54854 °/min
Orbital period
101.45 mins
BSTAR
0.0044168
Loading maneuver chart data...
Computing Atmospheric mass density...
Loading historical data...
Loading historical data...
Loading historical data...
Loading historical data...
Loading historical data...
Loading historical data...
Loading historical data...

Documentation

Showing up to 5 results
|